Cloud_Cover
100 99 24 83 2 3 5 8 7 5 5 4 5 5 9 6 82 9 82 53 86 94 10 16 5 9 5 5 5 15 0 0 82 97 3 3 5 5 50 38 100 77 5 33 89 68 58 67 83 99 43 0 0 0
84 5 5 5 5 42 13 16 15 9 8 16 5 6 5 9 12 36 52 94 67 90 15 33 38 14 7 10 8 3 3 24 4 66 90 96 90 100 100 100 67 100 31 50 22 97 63 100 12 0 5 0 0 0
5 5 5 23 67 38 11 18 13 43 51 5 5 12 5 5 5 32 29 71 68 99 38 95 100 32 11 5 5 3 1 2 59 8 100 56 4 20 36 80 100 66 90 99 94 58 3 3 18 0 0 0 0 0
36 8 90 100 58 90 6 15 12 20 12 7 6 6 5 5 4 8 82 36 96 84 99 100 70 93 97 71 30 3 3 59 97 60 88 100 5 4 82 61 51 100 30 6 98 20 0 0 0 0 0 0 0 0
66 95 100 99 88 11 26 7 87 8 15 11 5 5 6 5 4 30 99 56 68 92 100 100 56 99 68 89 50 28 2 23 66 43 15 100 100 42 71 99 91 21 100 6 90 45 1 0 0 0 0 0 0 0
99 100 100 98 5 5 71 41 69 40 6 5 5 84 58 5 6 41 97 84 94 100 100 100 9 68 49 50 20 17 42 6 23 12 4 96 100 75 100 100 83 87 98 100 5 7 2 0 0 0 0 0 0 0
100 100 100 99 57 5 84 14 96 7 96 98 100 98 5 7 71 69 95 98 100 100 100 100 47 56 100 73 100 96 100 100 45 22 22 75 100 95 29 9 41 88 100 4 4 4 2 0 0 0 0 0 0 0
100 100 100 90 5 40 100 100 33 98 100 100 92 8 84 100 96 55 96 63 86 100 100 100 52 57 70 100 100 100 100 100 99 40 55 20 100 100 100 99 100 76 57 59 0 0 0 0 0 0 0 0 0 0
100 100 100 7 16 100 100 100 100 100 100 39 5 5 70 89 100 94 100 99 92 100 100 100 100 100 100 100 100 61 100 100 47 12 70 100 100 100 100 100 100 100 84 0 0 0 0 0 0 0 0 0 0 0
100 100 98 5 90 100 100 100 100 73 16 5 42 100 100 100 48 66 99 100 100 100 100 100 100 100 100 100 100 100 94 100 77 31 71 28 68 100 100 100 8 4 1 0 0 0 0 0 0 0 0 0 0 0
100 58 5 29 98 100 100 98 97 11 8 78 80 88 71 58 98 100 100 100 100 100 100 100 100 100 100 100 94 98 78 88 100 97 17 27 9 100 100 100 72 5 1 0 0 0 0 0 0 0 0 0 0 0
74 2 14 100 100 100 100 60 7 40 100 50 37 43 60 78 100 100 100 100 100 100 100 100 100 100 77 100 100 98 63 82 100 73 5 5 20 100 95 99 100 15 0 0 0 0 0 0 0 0 0 0 0 0
5 5 99 100 100 100 61 6 4 13 11 90 89 93 88 79 100 100 100 100 100 100 100 100 100 100 71 100 92 68 95 100 41 84 27 94 100 65 67 100 100 52 3 0 0 0 0 0 0 0 0 0 0 0
41 100 100 100 100 100 12 5 5 23 33 82 100 100 100 100 100 100 100 100 100 100 100 100 100 100 99 84 100 100 100 99 72 82 69 65 100 100 100 100 100 72 88 70 21 0 0 0 0 0 0 0 0 0
82 100 100 100 100 67 5 5 5 71 75 99 99 100 100 100 100 100 100 100 100 100 100 100 100 100 100 98 100 100 100 96 49 72 97 100 100 100 55 63 98 78 26 22 94 61 28 23 0 0 0 0 0 0
98 95 100 100 92 15 5 23 62 73 100 95 94 100 100 100 100 100 100 100 100 100 100 100 100 100 95 100 100 100 100 100 100 99 100 100 100 100 100 100 100 100 84 13 3 46 98 88 47 0 0 0 0 0
100 98 100 100 100 5 5 63 84 87 100 100 96 100 100 100 100 100 100 97 22 49 100 100 100 100 92 68 93 86 96 100 100 100 100 100 100 100 100 100 100 88 95 21 5 5 22 42 35 11 0 0 0 0
100 100 100 100 73 43 67 60 83 89 99 28 80 100 100 100 100 100 94 96 98 17 23 94 87 100 100 100 79 98 88 100 98 100 100 100 100 100 100 100 100 100 80 51 32 5 5 5 13 64 44 0 0 0
100 100 100 100 99 100 100 100 100 100 100 100 78 81 96 97 100 100 100 100 88 43 31 42 100 84 100 100 100 97 68 100 92 72 61 86 100 100 100 100 100 100 98 5 6 5 5 5 4 3 3 89 18 0
100 100 100 100 78 100 100 100 98 100 100 100 100 100 100 100 100 100 100 100 100 60 93 94 85 100 95 25 20 10 100 100 100 36 40 49 99 98 99 76 100 99 46 5 5 5 5 5 0 2 73 91 95 20
100 100 100 100 100 100 90 100 100 95 100 100 100 100 100 100 100 100 100 100 98 100 100 100 80 100 100 34 5 5 25 27 28 23 24 69 100 62 84 100 96 61 9 5 5 5 5 5 5 2 0 9 100 99
100 100 100 100 100 100 88 100 84 58 99 100 100 100 100 100 100 100 100 100 100 100 100 100 100 100 100 81 64 53 44 67 34 43 47 61 100 82 84 42 100 91 8 5 17 5 5 0 0 0 0 0 6 4
100 100 100 100 100 100 100 100 100 98 100 100 100 100 100 100 100 100 100 100 100 100 100 100 100 100 100 100 100 100 100 91 77 100 100 100 94 90 99 86 87 89 62 30 22 20 5 2 0 0 0 0 0 0
100 100 100 100 100 100 100 97 99 99 98 100 100 100 100 99 100 100 100 100 100 100 100 100 100 100 100 100 100 100 100 100 100 100 100 100 100 100 100 100 100 100 100 100 100 100 39 3 0 0 0 0 0 0
100 100 100 100 91 100 99 76 75 94 78 99 100 100 100 100 98 100 100 100 100 100 100 100 100 100 100 100 100 100 100 100 100 100 100 100 100 100 100 100 100 100 100 100 100 100 100 100 64 45 20 65 70 12
100 96 90 80 58 92 57 90 62 71 71 98 51 94 82 100 100 100 100 100 100 100 100 100 100 100 100 100 100 100 100 100 100 100 100 100 100 100 94 100 100 100 100 100 100 100 100 100 100 100 76 67 100 100
84 77 22 57 58 47 58 66 29 61 100 98 93 100 100 100 85 100 100 100 100 100 100 100 100 100 100 100 100 100 100 100 100 100 100 100 100 100 100 100 100 100 100 100 100 100 100 100 100 100 100 99 100 100
71 83 39 5 21 72 100 61 100 96 98 51 98 72 100 95 94 100 100 100 100 100 100 100 100 100 100 100 100 100 100 100 100 100 100 100 100 100 100 76 56 32 94 100 96 100 100 100 100 100 100 100 77 43
100 100 100 100 100 100 100 100 100 100 56 94 54 81 78 67 100 100 94 70 68 98 100 100 100 100 100 100 100 96 99 100 98 100 100 100 100 100 100 100 100 100 100 100 100 100 100 100 100 100 100 100 100 100
94 100 98 100 100 100 100 99 100 98 97 100 100 99 98 99 98 74 76 77 93 100 99 93 79 68 56 83 53 32 86 37 10 88 100 100 42 34 82 100 100 100 100 100 100 100 97 84 100 100 100 100 100 100
58 96 71 100 60 100 100 20 58 86 82 97 100 100 100 99 100 100 100 93 90 33 19 9 10 20 11 6 5 5 6 5 22 18 8 1 4 2 0 2 28 47 73 98 100 85 85 96 88 91 93 93 100 96
100 100 99 100 100 46 81 87 32 48 100 100 100 100 84 100 94 39 15 9 5 5 2 3 5 39 30 5 8 5 5 5 5 5 1 1 4 0 0 2 4 3 0 1 2 8 11 27 56 97 100 96 100 100
54 81 93 100 98 100 100 60 99 100 100 100 100 100 93 80 100 100 67 5 2 3 5 5 5 5 5 1 5 4 7 23 14 15 9 12 17 43 33 20 10 5 3 4 5 4 4 46 25 8 0 48 99 99